Theta_e
302 303 303 303 303 303 304 304 303 303 304 305 304 305 306 303 303 304 303 310 308 314 313 315 319 323 323 328 333 330 333 330 326 326 325 326 329 331 333 328 330 331 332 332 336 335 342 336 341 340 333 341 342 340
302 303 304 304 303 303 303 303 304 303 304 304 305 304 304 303 302 304 304 305 303 307 310 311 311 313 316 319 325 327 329 331 331 328 329 333 337 337 336 335 330 336 330 333 332 333 328 338 335 337 335 341 342 339
302 302 301 302 302 302 303 303 303 303 303 304 304 305 304 303 303 303 306 305 306 307 309 311 314 314 316 316 318 327 327 328 326 323 327 332 335 335 338 338 338 333 332 336 336 338 338 335 337 337 337 338 338 337
301 301 301 301 301 301 302 303 303 303 302 303 303 303 303 303 303 304 304 303 304 303 309 310 313 317 319 320 320 323 325 327 326 326 327 327 335 330 337 339 335 335 337 337 337 338 341 339 338 337 341 343 343 343
301 300 301 301 301 302 302 302 303 303 302 302 302 302 303 302 303 304 303 302 303 305 309 310 308 309 312 312 314 318 322 325 326 326 325 327 329 327 327 334 335 335 334 338 340 335 337 338 337 339 343 343 344 345
301 301 302 302 303 303 303 302 303 303 302 302 302 302 302 302 303 304 301 307 305 303 308 317 314 315 316 318 320 319 321 323 324 323 325 325 322 326 327 332 331 334 332 330 335 333 333 336 338 339 340 340 339 341
302 303 303 303 303 303 303 302 302 303 302 302 302 302 302 302 304 304 301 307 307 304 306 315 318 318 319 317 315 319 322 322 323 323 324 324 325 326 328 331 330 331 330 334 333 333 336 338 339 339 339 338 337 337
303 303 303 303 303 303 303 302 302 302 302 302 302 302 302 303 305 305 306 305 305 303 307 315 319 321 322 321 319 321 323 322 323 325 322 325 324 325 328 327 327 329 330 338 337 335 335 334 337 339 337 338 337 337
303 303 303 303 303 303 303 303 302 302 302 302 302 303 305 305 304 304 307 308 310 306 314 319 321 326 321 325 325 326 325 328 324 326 326 324 324 330 328 327 328 329 331 333 332 331 332 336 339 339 341 340 337 337
304 304 304 303 303 303 303 303 302 302 302 302 304 306 305 307 306 304 312 312 308 312 314 316 318 321 321 327 329 332 328 331 334 330 326 329 327 323 323 325 326 328 327 327 329 330 330 332 334 339 341 342 339 338
304 304 303 303 303 303 303 302 301 301 302 305 303 303 306 304 305 312 315 317 316 318 316 317 316 317 321 328 330 332 338 333 336 335 334 332 331 329 326 328 325 328 328 326 329 328 328 331 329 332 337 340 336 336
303 304 304 303 303 303 302 301 301 302 302 303 304 303 303 303 308 314 314 314 319 319 315 318 317 316 321 326 330 334 339 337 338 330 334 337 332 326 327 328 329 326 328 329 326 327 327 329 328 328 329 329 332 334
303 303 303 303 303 303 302 301 301 302 303 303 303 305 308 306 312 310 315 317 318 318 318 318 319 319 323 325 326 331 341 344 334 336 338 333 330 327 326 328 330 328 328 330 332 330 331 332 334 334 333 335 334 334
303 303 303 303 302 303 302 301 302 303 303 303 307 309 311 313 312 308 314 316 317 314 314 316 319 318 322 328 329 331 338 337 344 340 341 333 326 323 324 331 335 332 331 333 333 333 333 333 332 334 336 338 340 335
302 303 303 303 303 303 302 302 303 303 304 306 306 309 311 311 309 310 312 314 312 311 313 318 314 316 323 327 329 331 334 346 339 335 329 324 321 321 325 330 331 332 331 333 333 334 333 333 333 334 337 339 341 339
303 303 303 304 302 302 302 303 303 303 303 304 305 306 305 307 309 309 309 310 310 310 313 314 316 319 322 320 326 330 329 331 326 324 321 320 321 324 331 330 330 331 332 332 333 333 333 335 336 337 339 340 342 342
303 302 303 303 302 303 303 303 303 303 304 305 302 301 302 303 305 306 308 311 312 316 318 314 316 317 314 320 323 320 317 320 320 320 320 321 322 329 330 329 328 329 332 331 332 334 335 337 338 339 338 339 341 341
303 304 304 303 303 304 303 303 303 304 304 303 302 300 300 301 303 305 305 309 311 313 313 316 311 314 317 316 321 320 319 318 317 317 318 320 319 323 329 328 327 326 327 333 335 335 335 336 336 336 339 340 340 340
304 304 304 304 304 303 303 303 303 304 303 299 299 299 301 301 301 303 304 307 308 309 309 310 313 312 312 310 313 316 316 316 316 317 317 317 317 319 327 328 327 326 326 324 329 333 332 336 336 334 334 335 333 331
304 304 304 304 303 303 304 303 303 303 304 300 299 301 302 303 303 303 304 305 307 308 311 313 311 310 310 309 310 312 313 312 314 315 317 317 316 317 321 327 327 327 325 324 325 324 325 326 331 332 332 331 330 328
304 304 304 304 303 303 302 304 305 300 300 301 301 302 303 302 304 305 305 304 307 308 309 307 307 306 304 308 311 311 311 311 313 314 317 317 316 316 322 323 325 326 326 324 322 322 323 324 326 327 328 325 325 325
304 304 304 303 303 303 301 301 301 301 303 302 302 302 303 306 305 304 303 307 307 307 307 307 307 306 308 311 311 312 312 313 314 314 315 315 317 317 317 317 322 325 324 322 322 321 321 320 324 325 324 323 322 322
303 304 304 304 304 303 300 302 304 303 305 305 304 307 307 308 307 304 307 305 305 306 306 306 306 308 308 313 314 314 314 314 312 312 314 316 316 317 317 317 317 323 321 322 322 320 320 318 320 321 321 322 322 324
304 304 305 305 304 303 301 303 302 305 305 307 310 311 309 309 307 307 310 307 308 306 308 307 309 310 310 310 310 314 315 315 314 315 315 316 317 317 317 317 317 318 321 322 322 322 322 322 321 320 320 321 322 322
304 301 299 295 299 304 306 305 307 307 309 308 310 309 311 311 314 314 311 309 310 309 308 308 308 308 309 310 312 315 315 315 315 315 316 316 316 317 317 318 318 318 317 320 320 321 321 321 320 320 321 322 322 321
304 301 300 304 305 306 306 307 308 308 307 309 312 311 312 315 313 311 313 311 309 308 308 309 309 309 309 312 314 314 315 314 314 315 315 316 317 317 316 317 319 319 318 319 319 320 319 319 319 320 320 321 321 321
303 302 302 300 301 303 304 303 304 305 309 312 312 312 312 315 315 314 312 311 312 310 311 312 312 311 311 312 314 315 315 316 315 315 316 317 317 318 317 319 319 318 319 320 319 320 319 321 321 321 321 320 321 322
304 302 304 304 305 303 307 308 308 311 312 311 311 314 313 316 316 313 313 313 313 313 313 313 313 312 313 314 314 315 315 316 316 315 316 316 317 317 317 317 318 318 318 319 320 321 320 320 320 321 320 320 320 321
303 301 303 305 307 307 309 310 309 308 309 309 310 311 314 312 311 311 313 313 314 314 314 313 313 313 314 315 315 315 316 316 316 315 316 315 317 316 318 317 317 317 317 317 317 317 317 318 318 318 318 319 320 320
302 301 306 308 309 309 309 306 308 309 309 308 307 308 310 311 311 311 313 313 313 313 313 314 314 314 313 314 314 315 315 315 316 316 316 317 315 314 315 316 316 316 317 318 318 318 319 320 320 320 320 320 319 319
303 306 309 307 308 306 306 306 306 306 308 309 309 310 310 311 312 314 314 314 314 315 315 313 313 315 314 313 313 314 313 315 316 317 317 317 316 316 316 316 316 316 316 317 317 317 318 319 319 320 320 318 317 317
304 308 308 308 306 304 306 307 308 309 309 310 311 308 307 309 311 308 313 314 314 313 313 313 313 313 315 315 314 315 314 314 313 315 315 313 312 312 312 314 315 315 316 315 315 315 316 318 319 319 319 318 317 317
307 308 306 308 309 309 308 308 309 310 309 309 309 308 308 308 312 310 313 313 313 313 313 313 313 313 309 308 309 311 314 313 313 311 311 310 310 310 310 311 311 314 314 314 314 314 315 315 318 318 318 318 318 317
Wind_Speed
18 19 19 19 20 19 19 19 19 18 18 19 20 20 21 20 20 20 15 5 8 3 11 10 7 5 5 1 2 5 8 3 2 2 4 4 4 5 2 5 7 8 6 4 2 3 4 5 5 5 4 4 6 7
20 20 20 20 20 20 20 19 18 17 17 18 19 20 20 20 20 19 4 11 18 7 8 26 36 36 33 24 4 3 4 5 4 2 1 2 3 0 3 3 1 2 7 6 8 8 4 20 3 3 5 6 5 7
21 20 20 20 21 21 21 21 19 18 19 19 20 20 20 20 19 16 16 13 7 4 8 11 10 31 27 36 42 5 4 5 3 1 1 2 2 4 3 5 2 3 4 3 3 1 5 17 4 2 2 4 6 7
20 19 20 21 21 21 21 22 21 20 20 21 22 23 23 23 22 19 20 21 10 7 4 6 18 17 16 18 22 35 28 23 9 6 3 3 3 4 4 3 3 4 4 5 1 3 7 4 2 8 9 11 11 9
19 20 22 22 22 22 22 21 22 22 22 22 24 24 25 25 25 25 31 31 24 8 4 5 27 40 33 39 32 33 22 15 5 3 3 4 2 3 0 3 3 3 5 4 5 7 5 6 7 9 13 13 13 13
21 23 23 23 22 22 22 22 22 22 23 24 25 26 26 25 23 17 4 8 6 16 4 4 7 19 32 26 20 16 12 10 5 4 4 4 4 3 3 3 5 5 3 6 4 4 3 9 12 8 9 11 11 10
23 23 23 23 22 22 22 22 22 23 23 24 26 28 29 27 21 6 6 2 11 20 3 5 4 6 12 12 6 9 11 5 5 4 4 2 2 4 3 2 5 6 7 6 6 9 6 4 8 8 4 6 2 7
22 23 22 22 22 22 22 22 22 24 24 26 29 31 33 35 29 18 29 22 19 5 4 5 5 5 3 3 4 5 5 4 4 5 1 5 1 2 3 8 6 6 2 3 7 4 10 10 7 10 4 5 5 4
22 22 22 22 22 22 22 21 22 23 24 27 31 33 18 3 5 6 13 20 16 7 3 4 3 4 7 3 3 2 4 4 2 5 5 5 4 5 8 8 6 7 4 6 3 8 10 11 12 11 9 7 7 7
21 21 22 22 21 21 20 21 20 20 23 25 15 4 3 3 17 29 3 5 4 5 4 5 2 8 6 4 4 3 2 5 5 5 5 4 5 5 6 9 10 10 9 10 6 6 7 7 10 13 14 13 13 12
20 21 20 20 19 18 17 16 16 18 16 5 4 3 11 28 7 3 3 4 3 3 3 4 4 6 3 3 3 3 3 3 5 6 8 4 4 6 8 8 8 7 8 10 10 7 9 15 12 12 12 12 9 11
19 19 18 16 15 15 13 12 12 10 7 9 16 20 9 3 3 3 3 3 4 3 2 3 4 4 4 3 2 3 4 3 5 3 5 2 3 3 9 9 8 9 8 8 7 11 9 10 9 8 8 11 16 23
15 15 14 14 13 12 11 10 11 10 13 8 2 3 2 3 2 2 3 2 3 4 4 5 5 2 3 1 2 4 5 3 0 3 6 2 8 9 11 11 9 8 8 7 8 5 11 10 16 14 8 15 23 22
13 13 12 12 12 10 8 8 7 5 3 1 3 5 2 4 4 3 4 5 4 6 8 8 4 2 2 2 2 4 4 3 3 4 3 5 12 13 12 10 10 8 9 12 13 13 13 12 9 15 19 18 19 18
12 10 11 12 10 7 5 4 3 2 2 2 2 3 3 2 5 7 7 3 3 6 7 4 3 2 3 3 0 3 4 4 3 3 3 7 14 13 13 13 10 9 9 12 13 14 13 13 12 11 16 15 14 18
6 6 4 5 3 3 3 2 1 1 2 2 3 4 4 4 5 3 5 4 3 9 4 1 3 3 2 3 4 5 4 7 5 4 6 8 12 12 13 13 9 9 13 12 12 16 17 16 13 15 19 19 18 20
4 2 4 1 6 5 4 1 1 2 2 3 3 3 5 6 7 5 4 5 3 3 3 2 5 2 3 2 3 3 2 5 7 7 6 8 9 11 13 11 9 3 11 12 11 16 15 23 26 19 9 11 18 18
2 1 1 2 5 5 2 1 1 2 4 4 4 4 3 4 4 5 4 3 2 2 3 2 2 3 3 3 2 1 3 4 5 5 7 7 12 13 10 14 13 14 9 5 19 18 20 19 11 8 22 23 24 24
0 3 4 5 4 1 1 1 2 3 4 3 4 4 4 4 4 5 4 3 3 2 0 1 1 1 2 3 3 3 2 2 4 7 7 10 16 13 12 19 20 22 19 15 6 12 17 21 23 24 26 24 19 20
3 4 4 6 2 0 1 2 3 3 4 3 3 4 3 4 3 3 4 2 1 1 2 1 3 3 3 3 3 3 2 1 2 4 6 7 14 13 12 14 12 18 19 23 21 13 17 18 23 25 26 27 23 20
4 4 2 3 2 3 2 2 3 4 4 3 3 2 4 2 3 2 3 2 2 2 2 4 4 4 5 6 4 4 3 4 3 3 1 5 11 11 6 14 13 12 13 13 8 14 15 11 23 27 28 27 28 26
2 6 2 3 1 2 3 6 3 3 2 3 4 2 4 3 3 2 1 1 3 4 4 4 4 4 1 2 5 7 6 5 4 5 6 6 6 7 6 10 6 3 10 9 11 9 15 2 24 29 30 27 24 23
6 2 2 3 2 1 6 1 2 3 2 3 4 4 3 3 3 1 1 2 3 2 4 4 7 7 3 4 2 4 2 4 3 4 5 7 10 10 8 6 1 11 2 15 13 16 18 11 16 24 24 23 23 22
2 2 2 2 4 4 2 3 2 3 3 2 2 4 4 2 3 2 2 2 2 4 5 6 2 3 3 3 0 2 5 5 6 5 4 4 2 5 13 12 12 6 7 16 21 18 11 1 2 7 16 23 22 25
1 3 3 4 2 2 3 3 3 2 3 3 3 3 3 2 2 2 3 3 4 3 4 5 4 1 2 1 2 4 3 5 3 3 8 2 5 8 12 14 19 19 4 13 11 18 21 16 13 7 11 18 26 22
3 3 5 3 2 3 3 3 3 3 3 3 2 3 3 2 2 3 2 4 3 3 4 3 3 4 3 4 2 2 14 10 5 4 7 5 7 2 1 4 5 15 25 3 16 21 19 17 14 12 14 17 18 21
3 4 4 4 2 1 3 3 3 1 3 3 3 4 3 4 3 2 3 4 3 9 13 11 5 2 4 7 6 10 9 7 4 2 8 3 1 7 11 13 8 7 18 18 9 19 20 19 20 20 20 16 17 21
4 3 4 2 2 2 3 2 2 2 2 3 1 2 2 3 2 3 4 9 13 11 6 2 0 4 8 7 14 12 7 11 3 7 7 8 9 6 8 12 9 8 9 9 15 19 21 22 22 20 20 19 16 15
3 3 1 4 2 2 3 3 3 3 3 3 1 2 2 2 2 3 8 15 17 2 5 5 2 4 5 10 3 8 11 7 4 5 7 4 4 8 6 7 5 3 3 13 9 8 10 13 13 12 10 9 11 13
4 4 3 3 4 4 4 5 4 3 3 4 2 2 3 2 0 6 10 13 16 10 13 7 1 4 4 2 4 9 15 5 9 8 5 5 6 6 3 7 11 5 14 13 12 11 12 11 9 8 7 10 15 16
2 2 2 3 4 4 5 5 4 3 2 3 3 3 3 2 3 4 10 13 10 15 14 11 8 4 3 2 2 3 5 14 11 12 21 18 13 9 4 1 5 9 13 13 11 8 5 7 9 9 10 13 13 11
4 6 4 4 4 4 3 3 2 1 1 1 2 2 4 3 2 3 10 10 9 10 9 10 7 5 5 4 4 4 8 10 11 13 13 10 8 8 8 7 5 5 6 7 7 6 6 5 8 9 13 12 9 8
1 1 2 1 2 3 3 3 2 2 3 2 2 1 1 1 2 2 3 6 7 7 8 9 6 5 7 9 8 5 3 5 6 6 6 6 5 3 3 3 0 2 2 3 3 3 4 4 4 6 11 8 5 4
Wind_Direction
324 325 327 328 331 331 328 330 334 338 342 345 347 348 348 350 355 358 330 59 13 295 283 262 279 293 335 292 268 320 331 349 346 125 152 206 193 215 173 199 181 165 146 186 122 75 262 164 78 205 200 343 160 147
318 319 318 317 319 326 327 326 326 326 331 335 339 340 340 342 344 344 304 304 322 233 272 288 275 266 253 258 322 290 266 323 260 47 231 135 216 131 150 256 315 185 177 179 166 205 232 177 62 131 162 154 177 116
313 314 318 318 318 318 321 321 318 316 319 324 326 329 331 332 333 331 306 312 303 273 270 266 250 275 266 237 238 242 260 229 343 298 293 253 215 136 170 245 251 289 134 131 111 265 209 192 84 119 133 111 126 122
306 310 314 316 316 316 311 313 312 311 310 314 317 322 326 327 325 321 302 291 257 264 265 280 285 267 271 252 250 226 241 272 305 327 231 233 204 189 200 214 198 205 133 148 282 39 76 18 206 143 120 121 128 143
300 305 308 311 311 310 310 307 309 307 305 307 311 314 317 321 324 316 306 290 242 214 281 304 301 286 275 264 247 245 232 241 246 274 236 239 193 135 252 67 286 190 172 139 208 209 169 198 182 148 146 168 161 159
299 303 305 305 307 308 309 306 307 308 306 304 308 310 311 315 322 334 328 46 121 207 282 285 284 274 269 252 229 231 213 223 192 195 216 243 246 113 116 187 260 247 219 188 200 182 251 160 164 170 168 181 192 173
300 301 301 302 303 303 304 306 306 308 309 307 308 310 307 307 301 233 235 214 244 340 301 285 264 253 253 227 211 218 208 191 169 199 222 226 247 108 114 186 240 251 268 224 162 135 54 156 185 195 192 200 171 85
298 300 300 300 299 298 301 307 305 307 307 308 310 310 305 300 286 264 263 279 276 224 224 268 263 301 345 247 205 170 167 155 222 191 71 167 16 65 210 237 262 266 299 121 163 164 165 168 140 170 137 132 164 234
298 298 298 299 297 294 297 302 304 308 309 309 314 308 299 217 193 233 290 299 233 180 232 247 255 283 347 312 285 282 159 165 170 166 191 129 172 210 210 189 212 228 214 162 102 133 130 149 169 159 155 164 183 211
295 295 295 297 296 296 296 301 305 310 312 317 313 304 291 210 313 313 39 194 185 205 231 243 257 277 340 348 296 328 191 174 160 219 116 149 213 238 223 204 187 211 197 137 120 115 121 142 164 171 186 187 192 197
294 294 294 296 296 299 302 304 308 316 328 325 318 266 303 313 303 233 254 232 161 231 224 235 232 248 259 246 269 258 314 250 136 207 150 194 235 207 203 220 221 222 187 184 174 162 180 168 168 171 190 196 187 178
292 291 291 294 298 299 301 307 314 311 293 296 291 295 292 306 270 227 251 274 226 239 280 252 252 216 272 181 228 296 249 271 173 141 118 191 256 229 189 221 209 209 218 182 166 159 163 162 149 145 156 172 186 190
293 290 290 290 294 296 293 303 308 302 308 296 301 262 241 257 280 284 301 278 262 332 356 326 313 255 282 178 212 218 244 247 344 132 157 86 349 344 349 339 303 210 210 174 151 171 140 135 150 145 139 166 177 179
289 292 288 290 291 289 288 301 304 312 290 323 308 292 272 286 7 235 276 321 342 330 327 307 272 280 262 237 217 297 309 221 170 116 74 354 340 328 325 317 309 243 189 165 153 152 146 145 147 148 142 150 162 171
289 287 292 282 282 275 272 276 290 301 295 278 304 257 258 94 270 271 282 278 327 313 317 297 296 256 298 286 90 270 264 168 59 71 346 320 315 314 314 315 296 237 177 160 148 143 143 141 138 138 150 146 150 169
273 282 282 323 232 212 207 216 238 295 268 246 239 267 273 277 286 296 293 278 344 328 294 292 302 319 4 334 334 324 348 33 7 338 307 309 309 313 325 325 282 222 172 161 156 148 143 140 140 142 143 137 132 153
197 239 341 280 162 173 172 228 223 241 262 258 259 261 254 267 261 272 299 293 192 311 340 333 358 335 302 343 37 36 358 301 295 284 313 304 317 328 345 344 359 83 173 156 143 143 134 136 134 123 116 138 135 126
190 63 171 145 173 158 187 202 264 259 252 251 271 268 240 237 263 281 274 290 312 297 353 341 298 1 27 26 6 72 258 288 292 316 286 328 354 343 356 7 15 36 28 130 139 131 131 130 121 120 126 129 117 113
310 159 154 167 167 175 159 241 196 269 258 246 258 247 237 250 243 242 265 266 262 264 327 24 300 261 248 217 235 265 208 251 299 322 336 355 352 336 355 15 18 25 28 13 36 124 130 135 137 137 134 126 121 119
108 139 173 197 198 283 265 242 204 245 271 249 254 264 228 240 262 257 269 247 172 63 322 237 221 226 208 245 217 228 227 172 324 340 340 340 344 339 7 23 6 18 26 19 17 31 102 104 131 136 135 131 127 123
127 166 208 213 242 242 267 264 231 220 259 250 258 253 260 292 267 263 266 150 88 188 246 235 237 254 252 273 274 231 240 173 197 194 295 332 333 342 341 40 5 14 34 25 21 1 348 112 130 131 126 122 122 118
206 174 205 194 260 244 240 229 227 260 250 256 310 242 280 286 269 251 164 128 221 225 206 230 248 255 200 239 256 256 283 332 336 327 349 326 346 354 4 26 12 351 37 23 18 18 1 323 130 127 123 122 117 113
163 225 233 220 247 271 261 214 237 261 265 273 323 305 268 279 251 8 279 218 259 295 302 274 275 274 147 173 261 295 296 286 315 334 350 339 355 350 1 356 167 158 147 60 42 64 62 321 121 120 124 119 112 108
240 249 243 231 204 262 302 265 228 266 277 287 287 282 288 260 330 28 267 287 295 310 346 332 331 68 50 63 90 260 251 249 280 347 340 316 353 318 349 342 10 38 159 148 125 111 104 8 288 119 121 116 111 112
294 270 133 282 243 268 270 270 248 265 260 265 255 285 273 337 339 319 334 293 332 329 331 345 352 25 112 242 291 283 280 257 280 313 308 291 357 5 359 17 16 30 65 157 154 165 172 180 207 196 143 121 122 122
247 232 174 244 246 196 251 289 276 270 265 276 286 286 319 23 35 301 294 331 303 293 305 323 6 354 4 36 46 353 302 313 309 294 311 281 212 157 235 23 359 359 27 59 179 171 169 165 156 126 115 123 126 132
253 268 235 222 224 285 296 277 269 258 272 318 353 329 337 339 331 286 270 244 229 250 273 290 294 269 281 304 20 359 339 308 279 249 0 330 171 47 141 136 133 42 25 22 150 153 137 132 121 112 106 115 139 144
233 249 204 262 264 208 231 254 258 234 232 248 276 275 308 315 308 248 235 284 324 315 292 266 159 291 285 336 357 1 2 357 19 178 201 81 67 86 56 79 79 85 59 91 92 97 102 103 105 108 106 104 114 130
246 248 137 276 260 255 238 231 250 240 199 159 187 269 252 249 284 295 312 322 327 333 41 56 178 210 269 314 360 48 28 58 109 106 94 86 59 34 74 101 47 231 202 131 104 66 64 92 106 106 104 113 122 130
247 183 187 214 192 234 239 196 228 227 178 189 194 310 299 277 266 10 356 6 2 23 56 76 58 290 264 242 347 39 23 49 144 231 140 127 136 95 111 315 331 163 157 137 124 114 109 113 116 115 119 127 137 132
197 161 217 201 243 242 239 254 244 199 182 208 196 210 245 280 305 344 360 1 11 32 42 50 61 149 159 146 24 347 13 47 109 132 138 146 161 147 194 174 103 122 111 105 100 89 93 122 128 143 144 144 145 138
186 204 192 227 265 277 333 2 329 40 67 73 23 348 1 24 324 311 8 11 39 42 38 34 39 54 82 77 85 132 101 89 99 110 116 117 104 98 102 107 116 110 110 116 116 108 108 129 162 143 156 156 159 155
154 164 203 248 351 351 313 5 9 33 40 31 340 338 275 204 261 272 24 43 46 39 32 27 47 84 90 84 71 83 138 119 111 103 91 81 62 18 334 323 287 180 162 140 117 102 115 116 137 146 163 167 182 198